Other Surface Observations
Issued by NWS

Home | Current Version | Previous Version | Text Only | Print | Product List | Glossary On
Versions: 1 2 3 4 5 6 7 8 9 10 11 12 13 14 15 16 17 18 19 20 21 22 23 24 25 26 27 28 29 30 31 32 33 34 35 36 37 38 39 40 41 42 43 44 45 46 47 48 49 50
347
SXUS52 KTAE 020318
OSOTAE
OSOTAE
North Florida/South Alabama/Southwest Georgia Weather Roundup
National Weather Service Tallahassee Florida
1100 PM EDT SUN MAY 01 2016

Note: "fair" indicates few or no clouds below 12,000 feet with no
significant weather and/or obstructions to visibility.

!FLZ017-115-028-034-025-020400
...North Florida...

CITY           SKY/WX    TMP DP  RH WIND       PRES   REMARKS
TALLAHASSEE    PTCLDY    70  66  87 W3        30.04R
APALACHICOLA   PTCLDY    73  72  96 SE5       30.02S
PERRY          CLEAR     71  68  91 CALM      30.05S
CROSS CITY       N/A     73  67  81 NE3       30.04R
JACKSONVILLE   CLEAR     74  70  87 SE9       30.06R
$$

!FLZ112-006-005-002-011-020400
...Florida Panhandle...

CITY           SKY/WX    TMP DP  RH WIND       PRES   REMARKS
MARIANNA       CLEAR     74  70  87 NW5       30.01S
BONIFAY        NOT AVBL
PANAMA CITY NW FAIR      73  71  93 E3        30.00S
TYNDALL AFB    CLOUDY    73  71  92 SE5       30.01S
TYND DRONE APT CLOUDY    73  71  94 SE6       30.01S
DE FUNIAK SPR    N/A     72  71  97 S5        30.03S
EGLIN AFB      MOCLDY    75  71  89 SE6       30.00S
DESTIN         MOCLDY    77  75  93 S6        30.01R
HURLBURT       CLOUDY    75  72  91 SE9       29.99R
CRESTVIEW      CLOUDY    74  71  91 SE8       30.01F
PENSACOLA      CLOUDY    76  72  87 SE8       29.99R
$$

!ALZ063-066-020400
...South Alabama...

CITY           SKY/WX    TMP DP  RH WIND       PRES   REMARKS
DOTHAN         CLOUDY    73  71  93 CALM      30.05F
OZARK CAIRNS   CLOUDY    75  69  83 SW1       30.01F
FT RUCKER HELI NOT AVBL
RUCKER HELI 3  MOCLDY    73  68  86 NE2       30.03S
RUCKER HELI 2  NOT AVBL
FLORALA APT    CLOUDY    72  69  90 CALM      30.03S
ANDALUSIA      CLOUDY    74  68  81 CALM      30.01S
TROY           PTCLDY    68  66  93 CALM      30.02S FOG
EUFALA         FAIR      70  65  84 CALM      30.01F
MOBILE         CLOUDY    73  73 100 E9        29.98R
$$

!GAZ120>161-020400
...Southwest and South Central Georgia...

CITY           SKY/WX    TMP DP  RH WIND       PRES   REMARKS
THOMASVILLE    FAIR      68  66  94 CALM      30.05F
BAINBRIDGE     PTCLDY    72  64  78 S5        30.02F
MOODY AFB      CLEAR     75  65  71 VRB5G20   30.05R
VALDOSTA       CLEAR     70  67  90 CALM      30.04F
MOULTRIE       CLEAR     72  64  78 CALM      30.05F
BLAKELY        CLOUDY    72  70  94 CALM      30.03R
ALBANY         CLEAR     76  64  66 S7        30.04S
TIFTON         FAIR      74  68  82 E3        30.06S
FITZGERALD     CLOUDY    73  71  93 E3        30.09S
CORDELE        CLOUDY    78  67  69 NE5       30.06S
AMERICUS       CLOUDY    72  72 100 SE6       30.05R
HOMERVILLE     MOCLDY    73  70  88 NE3       30.08S
$$

!GMZ750-755-770-775-020400
...Coastal and Buoy Obs...

STATION/POSITION TIME  TEMP    WIND        PRES    VSBY  WAVE
                       AIR SEA DIR/SP/G                  HT/PER
                 (UTC) (F)     (DEG/KT/KT) (MB)    (MI)  (FT/S)
KEATON BEACH     0300   77     300/  5/  7 1016.7F
CEDAR KEY        0300   77      20/  5/  6 1017.4S
C TOWER          0300   74     110/  5/  5 1017.0F
APALACHICOLA BUO 0250   75 76   40/  6/  8 1016.4R         3/ 6
PANAMA CITY BUOY 0250   78 79  110/ 12/ 14 1016.3R         4/ 7
MOBILE BUOY      0300   76 76  120/ 14/ 16 1015.4F
ORANGE BCH AL BU 0250   76 75  140/ 14/ 17 1013.8R         4/ 7
$$




USA.gov is the U.S. government's official web portal to all federal, state and local government web resources and services.